Location: Unspecified
(0.0000°N, 0.0000°E)
Time: 06:12:54
(UTC+00:00)

SR - Visible Passes

Search period start: 22 September 2014 00:00
Search period end: 02 October 2014 00:00
Orbit: 575 x 890 km, 66.7° (Epoch: 09 September)

Date Brightness Start Highest point End Pass type
(mag) Time Alt. Az. Time Alt. Az. Time Alt. Az.
22 Sep ? 19:23:13 10° S 19:24:18 16° SSE 19:24:18 16° SSE visible
23 Sep ? 18:37:22 10° SE 18:39:06 13° ESE 18:39:06 13° ESE visible
23 Sep ? 20:16:35 10° SW 20:18:45 24° WSW 20:18:45 24° WSW visible
24 Sep ? 19:28:04 10° SSW 19:33:12 83° ESE 19:33:57 66° NE visible
25 Sep ? 18:40:29 10° S 18:45:04 33° ESE 18:49:35 12° NE visible
25 Sep ? 20:23:47 10° WSW 20:27:05 17° WNW 20:29:18 13° NW visible
26 Sep ? 19:33:55 10° SW 19:38:46 39° WNW 19:43:58 10° N visible
27 Sep ? 18:45:22 10° SSW 18:50:32 85° ESE 18:56:09 10° NNE visible
28 Sep ? 19:41:10 10° WSW 19:44:25 16° WNW 19:47:48 10° NNW visible
29 Sep ? 18:51:14 10° SW 18:56:05 38° WNW 19:01:18 10° N visible
30 Sep ? 18:02:39 10° SSW 18:07:51 87° ESE 18:13:30 10° NNE visible
01 Oct ? 04:51:56 10° NE 04:53:53 12° ENE 04:55:46 10° E visible
01 Oct ? 18:58:32 10° WSW 19:01:44 16° WNW 19:05:03 10° NNW visible
